Weather History for Haines, AK

Change the Weather History Date:

Tuesday, November 1, 2011

  Actual Average Record
Temperature  
Mean Temperature 41 °F -  
Max Temperature 43 °F 37 °F 51 °F (2003)
Min Temperature 39 °F 30 °F 4 °F (1975)
Degree Days  
Heating Degree Days 24    
Moisture  
Dew Point 38 °F    
Average Humidity 88    
Maximum Humidity 93    
Minimum Humidity 81    
Precipitation  
Precipitation 1.17 in - - ()
Sea Level Pressure  
Sea Level Pressure 29.57 in    
Wind  
Wind Speed 17 mph (ESE)    
Max Wind Speed 23 mph    
Max Gust Speed 40 mph    
Visibility 8 miles    
Events Rain    
Averages and records for this station are not official NWS values.
T = Trace of Precipitation, MM = Missing Value Source: NWS Daily Summary

Daily Weather History Graph

Daily Weather History Graph

Search for Another Location

Airport:

Trip Planner

Search our weather history database for the weather conditions in past years. The results will help you decide how hot, cold, wet, or windy it might be!

Date:

Astronomy

Nov. 01, 2011 Rise Set
Actual Time 8:20 AM AKDT 5:09 PM AKDT
Civil Twilight 7:36 AM AKDT 5:53 PM AKDT
Nautical Twilight 6:48 AM AKDT 6:41 PM AKDT
Astronomical Twilight 6:01 AM AKDT 7:28 PM AKDT
Moon 2:26 PM AKDT (11/1) 10:51 PM AKDT (11/1)
Length of Visible Light 10h 16m
Length of Day
8h 48m
Waxing Crescent, 41% of the Moon is Illuminated
Nov 1
Waxing Crescent
Nov 2
First Quarter
Nov 10
Full
Nov 18
Last Quarter
Nov 24
New

Hourly Weather History & Observations

Time (AKDT) Temp. Windchill Dew Point Humidity Pressure Visibility Wind Dir Wind Speed Gust Speed Precip Events Conditions
12:05 AM 42.8 °F 35.1 °F 39.2 °F 87% 29.90 in 8.0 mi East 16.1 mph 34.5 mph 0.01 in Rain Light Rain
12:54 AM 43.0 °F 34.5 °F 39.9 °F 89% 29.90 in 7.0 mi ESE 19.6 mph 32.2 mph 0.05 in Rain Light Rain
1:54 AM 43.0 °F 34.8 °F 39.9 °F 89% 29.89 in 6.0 mi ESE 18.4 mph 29.9 mph 0.06 in Rain Light Rain
2:54 AM 43.0 °F 34.2 °F 39.9 °F 89% 29.86 in 6.0 mi ESE 20.7 mph 34.5 mph 0.07 in Rain Light Rain
3:54 AM 42.1 °F 34.9 °F 39.9 °F 92% 29.83 in 6.0 mi East 13.8 mph 24.2 mph 0.05 in Rain Light Rain
4:54 AM 42.1 °F 34.9 °F 39.9 °F 92% 29.80 in 7.0 mi East 13.8 mph 33.4 mph 0.06 in Rain Light Rain
5:11 AM 42.8 °F 35.1 °F 39.2 °F 87% 29.77 in 8.0 mi East 16.1 mph 26.5 mph 0.01 in Rain Light Rain
5:46 AM 42.8 °F 34.3 °F 39.2 °F 87% 29.76 in 8.0 mi ESE 19.6 mph 31.1 mph 0.04 in Rain Light Rain
5:54 AM 42.1 °F 34.5 °F 39.0 °F 89% 29.76 in 8.0 mi East 15.0 mph 32.2 mph 0.04 in Rain Light Rain
6:02 AM 42.8 °F 34.0 °F 39.2 °F 87% 29.74 in 9.0 mi East 20.7 mph 31.1 mph 0.01 in Rain Light Rain
6:46 AM 42.8 °F 35.1 °F 39.2 °F 87% 29.71 in 7.0 mi ESE 16.1 mph 32.2 mph 0.05 in Rain Light Rain
6:54 AM 42.1 °F 33.1 °F 39.0 °F 89% 29.72 in 8.0 mi ESE 20.7 mph 31.1 mph 0.06 in Rain Light Rain
7:54 AM 42.1 °F 34.2 °F 39.0 °F 89% 29.68 in 6.0 mi ESE 16.1 mph 35.7 mph 0.07 in Rain Rain
8:54 AM 42.1 °F 33.6 °F 37.9 °F 85% 29.65 in 5.0 mi ESE 18.4 mph 38.0 mph 0.07 in Rain Light Rain
9:54 AM 42.1 °F 34.9 °F 39.0 °F 89% 29.60 in 6.0 mi East 13.8 mph 29.9 mph 0.06 in Rain Light Rain
10:54 AM 42.1 °F 35.7 °F 37.9 °F 85% 29.57 in 8.0 mi East 11.5 mph 25.3 mph 0.06 in Rain Light Rain
11:51 AM 42.8 °F 34.3 °F 37.4 °F 81% 29.52 in 9.0 mi East 19.6 mph 34.5 mph 0.04 in Rain Light Rain
11:54 AM 42.1 °F 34.2 °F 37.9 °F 85% 29.52 in 8.0 mi ESE 16.1 mph 34.5 mph 0.04 in Rain Light Rain
12:54 PM 42.1 °F 34.5 °F 37.9 °F 85% 29.46 in 6.0 mi East 15.0 mph 31.1 mph 0.04 in Rain Light Rain
1:05 PM 42.8 °F 34.8 °F 37.4 °F 81% 29.44 in 6.0 mi ESE 17.3 mph 40.3 mph 0.01 in Rain Light Rain
1:54 PM 42.1 °F 33.6 °F 39.0 °F 89% 29.42 in 4.0 mi East 18.4 mph 38.0 mph 0.07 in Rain Rain
2:34 PM 41.0 °F 31.1 °F 37.4 °F 87% 29.40 in 2.5 mi ESE 23.0 mph 38.0 mph 0.08 in Rain Rain
2:41 PM 41.0 °F 31.6 °F 37.4 °F 87% 29.39 in 3.0 mi ESE 20.7 mph 38.0 mph 0.10 in Rain Rain
2:54 PM 41.0 °F 31.9 °F 37.9 °F 89% 29.40 in 4.0 mi East 19.6 mph 33.4 mph 0.12 in Rain Rain
3:54 PM 39.9 °F 31.4 °F 37.9 °F 93% 29.39 in 4.0 mi ESE 16.1 mph 27.6 mph 0.12 in Rain Rain
4:54 PM 39.9 °F 30.0 °F 37.0 °F 89% 29.37 in 9.0 mi East 21.9 mph 36.8 mph 0.08 in Rain Light Rain
5:39 PM 41.0 °F 31.9 °F 37.4 °F 87% 29.38 in 10.0 mi ESE 19.6 mph 34.5 mph 0.00 in Rain Light Rain
5:54 PM 41.0 °F 33.1 °F 37.9 °F 89% 29.39 in 8.0 mi East 15.0 mph 29.9 mph 0.01 in Rain Rain
6:49 PM 39.2 °F 30.5 °F 37.4 °F 93% 29.40 in 10.0 mi ESE 16.1 mph 28.8 mph 0.04 in Rain Light Rain
6:54 PM 39.9 °F 32.1 °F 37.9 °F 93% 29.41 in 10.0 mi ESE 13.8 mph 28.8 mph 0.04 in Rain Light Rain
7:18 PM 41.0 °F 33.9 °F 37.4 °F 87% 29.41 in 10.0 mi ESE 12.7 mph 28.8 mph 0.00 in   Overcast
7:54 PM 41.0 °F 34.7 °F 37.9 °F 89% 29.43 in 10.0 mi ESE 10.4 mph 19.6 mph 0.00 in   Mostly Cloudy
8:54 PM 39.9 °F 32.5 °F 36.0 °F 86% 29.46 in 10.0 mi East 12.7 mph 23.0 mph N/A   Mostly Cloudy
9:15 PM 39.2 °F 30.5 °F 35.6 °F 87% 29.46 in 10.0 mi East 16.1 mph 25.3 mph N/A   Scattered Clouds
9:22 PM 39.2 °F 31.6 °F 35.6 °F 87% 29.47 in 10.0 mi East 12.7 mph 25.3 mph N/A   Mostly Cloudy
9:32 PM 39.2 °F 30.8 °F 35.6 °F 87% 29.47 in 10.0 mi ENE 15.0 mph 24.2 mph N/A   Mostly Cloudy
9:54 PM 39.9 °F 35.1 °F 35.1 °F 83% 29.48 in 10.0 mi Variable 6.9 mph 17.3 mph N/A   Mostly Cloudy
10:54 PM 39.9 °F 33.9 °F 36.0 °F 86% 29.51 in 10.0 mi ESE 9.2 mph 20.7 mph N/A   Unknown
11:14 PM 39.2 °F 33.6 °F 35.6 °F 87% 29.50 in 10.0 mi East 8.1 mph - N/A   Mostly Cloudy
11:54 PM 39.9 °F 33.4 °F 36.0 °F 86% 29.53 in 10.0 mi East 10.4 mph 20.7 mph N/A   Unknown